SHIJIAN 6 04B (SJ-6 04B)

导读

实践六号04B卫星(SHIJIAN 6 04B,SJ-6 04B)是中国实践系列卫星中实践六号04组卫星之一,由中国航天科技集团下属上海航天技术研究院、中国空间技术研究院参与研制。于北京时间2010年10月6日在酒泉卫星发射中心由长征四号乙运载火箭发射升空,主要承担空间环境探测与相关技术试验任务,目前仍在轨服役,为我国空间科学研究积累了重要数据。

Basic Information
目录编号:
37180
目录名称:
SHIJIAN 6 04B (SJ-6 04B)
国际标识:
2010-051B
轨道中心:
EARTH
卫星名称:
SHIJIAN 6 04B (SJ-6 04B)
卫星全名:
--
卫星状态:
在轨 (已飞行5773 天)
发射日期:
2010-10-06 UTC
国别 :
中国 (CN)
星等 :
--
Orbit Information
数据来源 国际轨道数据 AOE轨道数据
星历时间 2026-07-27T22:22:06+0800
8小时前
查看轨道信息
2026-07-27T18:00:00+0800
12小时前
查看轨道信息
半长轴 6946.937km 6946.942km
偏心率 0.00092 0.0009283
轨道倾角 97.871° 97.872°
近地点辐角 175.382° 175.982°
升交点赤经 214.441° 214.260°
平近点角 184.749° 282.310°
近地点 562.408km 562.356km
远地点 575.192km 575.254km
周期 96.039分钟 96.040分钟
每日圈数 14.993836 14.993821
Detailed Information
使用方式:
暂无
2D Orbit Map
3D Orbit Map
Orbit Altitude Analysis Chart
Orbit Inclination Analysis Chart
Orbit Comprehensive Analysis Chart
View Comprehensive Chart